TimeAKDT,TemperatureF,Dew PointF,Humidity,Sea Level PressureIn,VisibilityMPH,Wind Direction,Wind SpeedMPH,Gust SpeedMPH,PrecipitationIn,Events,Conditions,WindDirDegrees,DateUTC
12:53 AM,12.0,1.9,64,29.91,10.0,NE,4.6,-,N/A,,Scattered Clouds,40,2013-03-29 08:53:00
1:53 AM,8.1,-0.0,70,29.91,10.0,NE,5.8,-,N/A,,Scattered Clouds,50,2013-03-29 09:53:00
2:53 AM,10.0,1.0,67,29.90,10.0,NE,5.8,-,N/A,,Scattered Clouds,40,2013-03-29 10:53:00
3:53 AM,3.0,-4.0,73,29.90,10.0,Calm,Calm,-,N/A,,Mostly Cloudy,0,2013-03-29 11:53:00
4:53 AM,6.1,-0.9,73,29.91,10.0,NE,4.6,-,N/A,,Mostly Cloudy,50,2013-03-29 12:53:00
5:53 AM,12.9,3.0,65,29.91,10.0,NE,4.6,-,N/A,,Mostly Cloudy,40,2013-03-29 13:53:00
6:53 AM,9.0,1.0,70,29.91,10.0,East,3.5,-,N/A,,Mostly Cloudy,80,2013-03-29 14:53:00
7:53 AM,3.0,-2.9,76,29.91,10.0,Calm,Calm,-,N/A,,Mostly Cloudy,0,2013-03-29 15:53:00
8:53 AM,5.0,-0.9,76,29.91,10.0,Calm,Calm,-,N/A,,Mostly Cloudy,0,2013-03-29 16:53:00
9:53 AM,14.0,3.0,62,29.91,10.0,East,3.5,-,N/A,,Mostly Cloudy,80,2013-03-29 17:53:00
10:53 AM,23.0,8.1,53,29.91,10.0,NE,3.5,-,N/A,,Mostly Cloudy,40,2013-03-29 18:53:00
11:53 AM,27.0,9.0,47,29.91,10.0,NNE,4.6,-,N/A,,Mostly Cloudy,30,2013-03-29 19:53:00
12:53 PM,33.1,10.9,40,29.90,10.0,Calm,Calm,-,N/A,,Mostly Cloudy,0,2013-03-29 20:53:00
1:53 PM,37.0,18.0,46,29.89,10.0,North,5.8,-,N/A,,Mostly Cloudy,10,2013-03-29 21:53:00
2:53 PM,41.0,15.1,35,29.88,10.0,Calm,Calm,-,N/A,,Mostly Cloudy,0,2013-03-29 22:53:00
3:53 PM,43.0,12.0,28,29.87,10.0,Calm,Calm,-,N/A,,Mostly Cloudy,0,2013-03-29 23:53:00
4:53 PM,42.1,12.9,31,29.86,10.0,Calm,Calm,-,N/A,,Mostly Cloudy,0,2013-03-30 00:53:00
5:53 PM,43.0,14.0,31,29.86,10.0,Calm,Calm,-,N/A,,Mostly Cloudy,0,2013-03-30 01:53:00
6:53 PM,37.9,15.1,39,29.86,10.0,Calm,Calm,-,N/A,,Mostly Cloudy,0,2013-03-30 02:53:00
7:53 PM,39.0,16.0,39,29.87,10.0,North,6.9,-,N/A,,Mostly Cloudy,350,2013-03-30 03:53:00
8:53 PM,36.0,15.1,43,29.88,10.0,North,8.1,-,N/A,,Mostly Cloudy,350,2013-03-30 04:53:00
9:53 PM,30.0,12.9,49,29.89,10.0,Calm,Calm,-,N/A,,Scattered Clouds,0,2013-03-30 05:53:00
10:53 PM,21.9,10.9,63,29.90,10.0,NNE,3.5,-,N/A,,Scattered Clouds,30,2013-03-30 06:53:00
11:53 PM,26.1,12.0,55,29.92,10.0,NNE,3.5,-,N/A,,Scattered Clouds,20,2013-03-30 07:53:00